Location: Rowland
(34.5359°N, 79.2929°W)
Time: 14:56:06
(UTC+00:00)

SR - Pass Details

Date: 04 October 2022
Orbit: 577 x 875 km, 66.7° (Epoch: 28 November)

Event Time Altitude Azimuth Distance (km) Brightness Sun altitude
Rises 11:08:22 0° 332° (NNW) 3,271 ? -2.0°
Reaches altitude 10° 11:10:53 10° 331° (NNW) 2,292 ? -1.5°
Maximum altitude 11:16:06 81° 245° (WSW) 722 ? -0.4°
Drops below altitude 10° 11:20:50 10° 159° (SSE) 2,081 ? 0.5°
Sets 11:23:01 0° 158° (SSE) 2,947 ? 1.0°
